Weather History for Ukiah, CA

Change the Weather History Date:

Saturday, July 13, 2013

  Actual Average Record
Temperature  
Mean Temperature 75 °F 74 °F  
Max Temperature 97 °F 92 °F 110 °F (1972)
Min Temperature 53 °F 56 °F 43 °F (1918)
Degree Days  
Heating Degree Days 0 0  
Month to date heating degree days 0  
Since 1 June heating degree days 32  
Since 1 July heating degree days 0  
Cooling Degree Days 10 9  
Month to date cooling degree days 106  
Year to date cooling degree days 270  
Since 1 June cooling degree days 218  
Growing Degree Days 25 (Base 50)    
Moisture  
Dew Point 47 °F    
Average Humidity 48    
Maximum Humidity 77    
Minimum Humidity 19    
Precipitation  
Precipitation 0.00 in 0.00 in 0.00 in (2014)
Month to date precipitation 0.03 0.04  
Year to date precipitation 5.61 23.42  
Since 1 July precipitation 0.03 0.04  
Snow  
Snow 0.00 in - - ()
Month to date snowfall 0.0  
Since 1 June snowfall 0.0  
Since 1 July snowfall 0.0  
Snow Depth -    
Sea Level Pressure  
Sea Level Pressure 29.88 in    
Wind  
Wind Speed 4 mph (ESE)    
Max Wind Speed 15 mph    
Max Gust Speed 23 mph    
Visibility 10 miles    
Events      
T = Trace of Precipitation, MM = Missing Value Source: NWS Daily Summary

Daily Weather History Graph

Daily Weather History Graph

Search for Another Location

Airport:

Trip Planner

Search our weather history database for the weather conditions in past years. The results will help you decide how hot, cold, wet, or windy it might be!

Date:

Astronomy

Jul. 13, 2013 Rise Set
Actual Time 5:57 AM PDT 8:38 PM PDT
Civil Twilight 5:26 AM PDT 9:10 PM PDT
Nautical Twilight 4:47 AM PDT 9:49 PM PDT
Astronomical Twilight 4:02 AM PDT 10:33 PM PDT
Moon 11:16 AM PDT (7/13) 11:25 PM PDT (7/13)
Length of Visible Light 15h 43m
Length of Day
14h 41m
Waxing Crescent, 26% of the Moon is Illuminated
Jul 13
Waxing Crescent
Jul 15
First Quarter
Jul 22
Full
Jul 29
Last Quarter
Aug 6
New

Hourly Weather History & Observations

Time (PDT) Temp. Dew Point Humidity Pressure Visibility Wind Dir Wind Speed Gust Speed Precip Events Conditions
12:56 AM 61.0 °F 48.0 °F 62% 29.87 in 10.0 mi Calm Calm - N/A   Clear
1:56 AM 59.0 °F 48.0 °F 67% 29.87 in 10.0 mi Calm Calm - N/A   Clear
2:56 AM 57.9 °F 46.0 °F 65% 29.87 in 10.0 mi Calm Calm - N/A   Clear
3:56 AM 57.0 °F 45.0 °F 64% 29.87 in 10.0 mi Calm Calm - N/A   Clear
4:56 AM 54.0 °F 46.0 °F 75% 29.88 in 10.0 mi Calm Calm - N/A   Clear
5:56 AM 53.1 °F 46.0 °F 77% 29.90 in 10.0 mi Calm Calm - N/A   Clear
6:56 AM 55.9 °F 46.9 °F 72% 29.91 in 10.0 mi Calm Calm - N/A   Clear
7:56 AM 61.0 °F 48.0 °F 62% 29.92 in 10.0 mi Calm Calm - N/A   Clear
8:56 AM 68.0 °F 51.1 °F 55% 29.92 in 10.0 mi East 3.5 mph - N/A   Clear
9:56 AM 73.9 °F 50.0 °F 43% 29.91 in 10.0 mi Calm Calm - N/A   Clear
10:56 AM 79.0 °F 51.1 °F 38% 29.90 in 10.0 mi ESE 3.5 mph - N/A   Clear
11:56 AM 84.9 °F 52.0 °F 32% 29.89 in 10.0 mi East 5.8 mph - N/A   Clear
12:56 PM 93.0 °F 50.0 °F 23% 29.88 in 10.0 mi ESE 12.7 mph - N/A   Clear
1:56 PM 95.0 °F 48.0 °F 20% 29.86 in 10.0 mi SE 11.5 mph - N/A   Clear
2:56 PM 95.0 °F 46.9 °F 19% 29.86 in 10.0 mi SE 11.5 mph - N/A   Clear
3:56 PM 97.0 °F 48.0 °F 19% 29.84 in 10.0 mi South 13.8 mph 23.0 mph N/A   Clear
4:56 PM 93.0 °F 45.0 °F 19% 29.85 in 10.0 mi West 12.7 mph 20.7 mph N/A   Clear
5:56 PM 91.9 °F 45.0 °F 20% 29.85 in 10.0 mi Variable 4.6 mph - N/A   Clear
6:56 PM 89.1 °F 43.0 °F 20% 29.86 in 10.0 mi NE 5.8 mph - N/A   Clear
7:56 PM 84.0 °F 43.0 °F 24% 29.87 in 10.0 mi NNE 6.9 mph - N/A   Clear
8:56 PM 78.1 °F 46.0 °F 32% 29.88 in 10.0 mi West 3.5 mph - N/A   Clear
9:56 PM 73.0 °F 46.0 °F 38% 29.90 in 10.0 mi Calm Calm - N/A   Clear
10:56 PM 69.1 °F 48.0 °F 47% 29.91 in 10.0 mi Calm Calm - N/A   Clear
11:56 PM 66.0 °F 48.9 °F 54% 29.91 in 10.0 mi Calm Calm - N/A   Clear